When you browse on this site, cookies collect data to enhance your experience and personalize the content and advertising you see.
Visit our Privacy Policy to learn more. By continuing to use the site, you agree to this use of cookies and data.
  • In Schweiz
  • Länderverzeichnis
  • Für 7 Tage
  • Wassertemperatur
  • Satellitenkarten
  • Wetterkarte
  • Widgets
  • user-avatar
    Anmelden

    Stündliche Wetter Hajfong

    Heute, 23 Juli, Dienstag

    Zeit Temperatur Niederschläge Wind Luftdruck Luftfeuchtigkeit
    00:00 +31°C° 0.8 mm 3 m/S 750 mmHg 85%
    01:00 +31°C° 0 mm 2 m/S 750 mmHg 86%
    02:00 +30°C° 0.1 mm 2 m/S 750 mmHg 86%
    03:00 +30°C° 0.1 mm 2 m/S 749 mmHg 86%
    04:00 +30°C° 0.1 mm 2 m/S 749 mmHg 87%
    05:00 +30°C° 0.8 mm 2 m/S 749 mmHg 86%
    06:00 +30°C° 0.8 mm 2 m/S 750 mmHg 84%
    07:00 +30°C° 0 mm 2 m/S 750 mmHg 80%
    08:00 +31°C° 0.7 mm 2 m/S 750 mmHg 77%
    09:00 +32°C° 0.7 mm 1 m/S 750 mmHg 75%
    10:00 +32°C° 0.7 mm 1 m/S 750 mmHg 72%
    11:00 +34°C° 0.1 mm 2 m/S 750 mmHg 69%
    12:00 +35°C° 0.1 mm 2 m/S 749 mmHg 65%
    13:00 +35°C° 0.1 mm 2 m/S 749 mmHg 61%
    14:00 +35°C° 0 mm 2 m/S 749 mmHg 62%
    15:00 +35°C° 0 mm 2 m/S 748 mmHg 64%
    16:00 +35°C° 0 mm 3 m/S 748 mmHg 65%
    17:00 +34°C° 0.4 mm 3 m/S 748 mmHg 70%
    18:00 +33°C° 0.4 mm 3 m/S 749 mmHg 75%
    19:00 +31°C° 0.4 mm 3 m/S 749 mmHg 81%
    20:00 +31°C° 0.4 mm 3 m/S 749 mmHg 81%
    21:00 +31°C° 0.4 mm 3 m/S 750 mmHg 81%
    22:00 +31°C° 0.4 mm 3 m/S 750 mmHg 82%
    23:00 +30°C° 0.8 mm 3 m/S 750 mmHg 83%

    Morgen, 24 Juli, Mittwoch

    Zeit Temperatur Niederschläge Wind Luftdruck Luftfeuchtigkeit
    00:00 +30°C° 0.8 mm 3 m/S 750 mmHg 83%
    01:00 +30°C° 0.8 mm 3 m/S 750 mmHg 84%
    02:00 +30°C° 0.2 mm 3 m/S 749 mmHg 84%
    03:00 +30°C° 0.2 mm 2 m/S 749 mmHg 84%
    04:00 +29°C° 0.2 mm 1 m/S 749 mmHg 84%
    05:00 +30°C° 0 mm 1 m/S 749 mmHg 82%
    06:00 +30°C° 0 mm 1 m/S 750 mmHg 80%
    07:00 +31°C° 0 mm 1 m/S 750 mmHg 78%
    08:00 +32°C° 0 mm 1 m/S 750 mmHg 72%
    09:00 +33°C° 0 mm 1 m/S 750 mmHg 65%
    10:00 +35°C° 0 mm 1 m/S 751 mmHg 58%
    11:00 +35°C° 0 mm 1 m/S 750 mmHg 56%
    12:00 +37°C° 0 mm 2 m/S 750 mmHg 55%
    13:00 +37°C° 0 mm 3 m/S 750 mmHg 53%
    14:00 +36°C° 0 mm 3 m/S 749 mmHg 57%
    15:00 +36°C° 0 mm 4 m/S 749 mmHg 61%
    16:00 +35°C° 0 mm 4 m/S 748 mmHg 65%
    17:00 +34°C° 0 mm 4 m/S 749 mmHg 70%
    18:00 +33°C° 0 mm 4 m/S 749 mmHg 74%
    19:00 +31°C° 0 mm 3 m/S 750 mmHg 79%
    20:00 +31°C° 0 mm 3 m/S 750 mmHg 80%
    21:00 +31°C° 0 mm 3 m/S 751 mmHg 81%
    22:00 +31°C° 0 mm 3 m/S 752 mmHg 82%
    23:00 +31°C° 0.3 mm 3 m/S 752 mmHg 83%

    übermorgen, 25 Juli, Donnerstag

    Zeit Temperatur Niederschläge Wind Luftdruck Luftfeuchtigkeit
    00:00 +30°C° 0.3 mm 3 m/S 751 mmHg 84%
    01:00 +30°C° 0.3 mm 3 m/S 751 mmHg 85%
    02:00 +30°C° 0.1 mm 2 m/S 751 mmHg 85%
    03:00 +30°C° 0.1 mm 2 m/S 751 mmHg 85%
    04:00 +30°C° 0.1 mm 2 m/S 751 mmHg 85%
    05:00 +30°C° 0.7 mm 2 m/S 751 mmHg 84%
    06:00 +31°C° 0.7 mm 2 m/S 752 mmHg 83%
    07:00 +31°C° 0.7 mm 2 m/S 752 mmHg 82%
    08:00 +33°C° 0.7 mm 3 m/S 752 mmHg 78%
    09:00 +34°C° 0.7 mm 3 m/S 753 mmHg 74%
    10:00 +35°C° 0.7 mm 4 m/S 753 mmHg 70%
    11:00 +35°C° 0.9 mm 4 m/S 752 mmHg 68%
    12:00 +36°C° 0.9 mm 4 m/S 752 mmHg 66%
    13:00 +36°C° 0.9 mm 4 m/S 751 mmHg 65%
    14:00 +36°C° 0.1 mm 4 m/S 751 mmHg 66%
    15:00 +35°C° 0.1 mm 4 m/S 750 mmHg 67%
    16:00 +35°C° 0.1 mm 4 m/S 750 mmHg 69%
    17:00 +34°C° 0 mm 4 m/S 750 mmHg 73%
    18:00 +33°C° 0 mm 4 m/S 750 mmHg 77%
    19:00 +32°C° 0 mm 4 m/S 751 mmHg 81%
    20:00 +31°C° 0 mm 3 m/S 751 mmHg 82%
    21:00 +31°C° 0 mm 3 m/S 752 mmHg 82%
    22:00 +31°C° 0 mm 3 m/S 753 mmHg 83%
    23:00 +30°C° 0.3 mm 3 m/S 752 mmHg 84%

    26 Juli, Freitag

    Zeit Temperatur Niederschläge Wind Luftdruck Luftfeuchtigkeit
    00:00 +30°C° 0.3 mm 3 m/S 752 mmHg 85%
    01:00 +30°C° 0.3 mm 3 m/S 752 mmHg 85%
    02:00 +30°C° 0.2 mm 3 m/S 751 mmHg 86%
    03:00 +30°C° 0.2 mm 2 m/S 751 mmHg 86%
    04:00 +30°C° 0.2 mm 2 m/S 751 mmHg 87%
    05:00 +30°C° 0.5 mm 2 m/S 751 mmHg 85%
    06:00 +31°C° 0.5 mm 2 m/S 751 mmHg 84%
    07:00 +31°C° 0.5 mm 2 m/S 751 mmHg 82%
    08:00 +33°C° 1.4 mm 3 m/S 752 mmHg 79%
    09:00 +34°C° 1.4 mm 3 m/S 752 mmHg 76%
    10:00 +35°C° 1.4 mm 4 m/S 752 mmHg 72%
    11:00 +35°C° 1 mm 4 m/S 752 mmHg 71%
    12:00 +35°C° 1 mm 4 m/S 751 mmHg 69%
    13:00 +36°C° 1 mm 4 m/S 751 mmHg 67%
    14:00 +35°C° 0.6 mm 4 m/S 750 mmHg 69%
    15:00 +35°C° 0.6 mm 4 m/S 749 mmHg 71%
    16:00 +34°C° 0.6 mm 5 m/S 749 mmHg 73%
    17:00 +34°C° 0 mm 4 m/S 749 mmHg 77%
    18:00 +33°C° 0 mm 4 m/S 750 mmHg 80%
    19:00 +31°C° 0 mm 3 m/S 750 mmHg 84%
    20:00 +31°C° 0 mm 3 m/S 750 mmHg 84%
    21:00 +31°C° 0 mm 3 m/S 751 mmHg 84%
    22:00 +30°C° 0 mm 3 m/S 752 mmHg 84%
    23:00 +30°C° 0.6 mm 3 m/S 751 mmHg 85%

    27 Juli, Samstag

    Zeit Temperatur Niederschläge Wind Luftdruck Luftfeuchtigkeit
    00:00 +30°C° 0.6 mm 3 m/S 751 mmHg 85%
    01:00 +30°C° 0.6 mm 4 m/S 751 mmHg 86%
    02:00 +30°C° 0.3 mm 3 m/S 751 mmHg 86%
    03:00 +30°C° 0.3 mm 3 m/S 750 mmHg 87%
    04:00 +30°C° 0.3 mm 3 m/S 750 mmHg 88%
    05:00 +30°C° 0.9 mm 3 m/S 750 mmHg 87%
    06:00 +31°C° 0.9 mm 3 m/S 751 mmHg 86%
    07:00 +31°C° 0.9 mm 3 m/S 751 mmHg 85%
    08:00 +33°C° 1.4 mm 4 m/S 751 mmHg 82%
    09:00 +33°C° 1.4 mm 4 m/S 751 mmHg 79%
    10:00 +34°C° 1.4 mm 4 m/S 751 mmHg 76%
    11:00 +35°C° 0.8 mm 5 m/S 751 mmHg 74%
    12:00 +35°C° 0.8 mm 5 m/S 751 mmHg 73%
    13:00 +35°C° 0.8 mm 5 m/S 750 mmHg 71%
    14:00 +35°C° 0.1 mm 5 m/S 750 mmHg 71%
    15:00 +35°C° 0.1 mm 5 m/S 749 mmHg 71%
    16:00 +35°C° 0.1 mm 4 m/S 749 mmHg 71%
    17:00 +34°C° 0 mm 4 m/S 749 mmHg 76%
    18:00 +33°C° 0 mm 4 m/S 750 mmHg 80%
    19:00 +32°C° 0 mm 4 m/S 750 mmHg 84%
    20:00 +32°C° 0 mm 4 m/S 751 mmHg 85%
    21:00 +32°C° 0 mm 4 m/S 752 mmHg 85%
    22:00 +32°C° 0 mm 4 m/S 752 mmHg 85%
    23:00 +30°C° 0.8 mm 4 m/S 752 mmHg 85%

    28 Juli, Sonntag

    Zeit Temperatur Niederschläge Wind Luftdruck Luftfeuchtigkeit
    00:00 +30°C° 0.8 mm 4 m/S 752 mmHg 85%
    01:00 +30°C° 0.8 mm 4 m/S 751 mmHg 85%
    02:00 +30°C° 0.3 mm 4 m/S 751 mmHg 85%
    03:00 +30°C° 0.3 mm 4 m/S 751 mmHg 86%
    04:00 +30°C° 0.3 mm 4 m/S 751 mmHg 86%
    05:00 +32°C° 0.1 mm 4 m/S 752 mmHg 85%
    06:00 +32°C° 0.1 mm 4 m/S 752 mmHg 85%
    07:00 +32°C° 0.1 mm 4 m/S 752 mmHg 84%
    08:00 +33°C° 0 mm 5 m/S 752 mmHg 79%
    09:00 +34°C° 0 mm 5 m/S 753 mmHg 75%
    10:00 +35°C° 0 mm 6 m/S 753 mmHg 70%
    11:00 +35°C° 0 mm 6 m/S 752 mmHg 69%
    12:00 +35°C° 0 mm 6 m/S 752 mmHg 68%
    13:00 +36°C° 0 mm 6 m/S 752 mmHg 67%
    14:00 +35°C° 0 mm 6 m/S 751 mmHg 69%
    15:00 +35°C° 0 mm 6 m/S 751 mmHg 70%
    16:00 +34°C° 0 mm 6 m/S 750 mmHg 72%
    17:00 +33°C° 0 mm 5 m/S 751 mmHg 75%
    18:00 +33°C° 0 mm 5 m/S 751 mmHg 78%
    19:00 +32°C° 0 mm 4 m/S 751 mmHg 80%
    20:00 +32°C° 0 mm 4 m/S 752 mmHg 81%
    21:00 +30°C° 0 mm 3 m/S 753 mmHg 81%
    22:00 +30°C° 0 mm 3 m/S 753 mmHg 81%
    23:00 +30°C° 0 mm 3 m/S 753 mmHg 82%
    Mehr zeigen